Flag for Nepal Weather past 2 weeks in Kathmandu, Nepal

Now
79 °F

Scattered clouds.


Feels Like: 80 °F
Forecast: 52 / 81 °F
Wind: 7 mph from West

Location: Kathmandu Airport

Current Time: Apr 19, 2015 at 3:44:28 PM

Latest Report: Apr 19, 2015 at 2:35 PM


Visibility: 5 mi

Pressure: 29.92 "Hg

Humidity: 54%

Dew point: 61 °F

Location of KathmanduLocation

Historic Weather in Kathmandu — Graph

°F

Kathmandu temperature yesterday

Maximum temperature yesterday: 72 °F (at 11:35 AM)
Minimum temperature yesterday: 55 °F (at 4:35 AM)
Average temperature yesterday: 64 °F

Past Weeks' High & Low Weather Summary

 TemperatureHumidityPressure
High81 °F (Apr 11, 12:35 PM)100% (Apr 14, 1:35 AM)30.27 "Hg (Apr 14, 1:35 AM)
Low50 °F (Apr 5, 2:35 AM)27% (Apr 8, 11:35 AM)29.77 "Hg (Apr 18, 3:35 PM)
Average64 °F70%30.04 "Hg
* Reported Apr 4 1:35 PM — Apr 19 1:35 PM, Kathmandu, Weather by CustomWeather, © 2015

Note: Actual official high and low records may vary slightly from our data, if they occured in-between our weather recording intervals... More about our weather records

Advertising

Kathmandu weather history for previous 24 hours

 ConditionsComfort  
Time TempWeatherWind HumidityBarometerVisibility
1:35 PM
Sun, Apr 19
79 °FScattered clouds.6 mph51%29.95 "Hg4 mi
12:35 PM77 °FScattered clouds.2 mph54%29.95 "Hg4 mi
11:35 AM75 °FPassing clouds.6 mph57%29.98 "Hg4 mi
10:35 AM75 °FPassing clouds.6 mph57%29.98 "Hg4 mi
9:35 AM70 °FHaze.3 mph69%29.98 "Hg3 mi
8:35 AM66 °FFog.No wind73%29.98 "Hg2 mi
7:35 AM63 °FFog.No wind83%29.95 "Hg1 mi
6:35 AM57 °FFog.3 mph94%29.92 "Hg1 mi
5:35 AM55 °FFog.2 mph94%29.92 "Hg1 mi
4:35 AM55 °FFog.No wind100%29.89 "Hg3 mi
3:35 AM55 °FPassing clouds.No wind100%29.89 "Hg4 mi
2:35 AM57 °FPassing clouds.No wind94%29.89 "Hg4 mi
1:35 AM57 °FPassing clouds.5 mph94%29.89 "Hg4 mi
12:35 AM59 °FPassing clouds.3 mph94%29.92 "Hg4 mi
11:35 PM
Sat, Apr 18
61 °FPassing clouds.2 mph88%29.92 "Hg4 mi
10:35 PM61 °FPassing clouds.3 mph88%29.92 "Hg4 mi
9:35 PM63 °FPassing clouds.5 mph88%29.92 "Hg4 mi
8:35 PM66 °FPassing clouds.3 mph73%29.89 "Hg4 mi
7:35 PM68 °FPassing clouds.5 mph69%29.86 "Hg4 mi
6:35 PM68 °FThunderstorms. Scattered clouds.6 mph69%29.83 "Hg4 mi
5:35 PM70 °FBroken clouds.7 mph64%29.80 "Hg4 mi
4:35 PM72 °FThunderstorms. Broken clouds.7 mph61%29.80 "Hg4 mi
3:35 PM72 °FThunderstorms. Broken clouds.10 mph61%29.77 "Hg5 mi
Weather by CustomWeather, © 2015

See weather overviewHow to use our weather pages